Regional Weather Roundup
Issued by NWS Wakefield, VA

Home | Current Version | Previous Version | Text Only | Print | Product List | Glossary On
Versions: 1 2 3 4 5 6 7 8 9 10 11 12 13 14 15 16 17 18 19 20 21 22 23 24 25 26 27 28 29 30 31 32 33 34 35 36 37 38 39 40 41 42 43 44 45 46 47 48 49 50
000
ASUS41 KAKQ 191110
RWRAKQ

REGIONAL WEATHER ROUNDUP
NATIONAL WEATHER SERVICE WAKEFIELD VA
700 AM EDT FRI SEP 19 2014

Note: "fair" indicates few or no clouds below 12,000 feet with no
significant weather and/or obstructions to visibility. * = Denotes
station may not report precipitation (e.g., rain,snow,etc.),
thunder or fog.

VAZ042-051-052>054-056-191200-
NORTHERN VIRGINIA

CITY           SKY/WX    TMP DP  RH WIND       PRES   REMARKS
WASH NATIONAL  MOCLDY    61  51  70 NE8       30.21R
DULLES         MOCLDY    54  49  83 N6        30.22R
FORT BELVOIR   MOCLDY    59  53  82 VRB2      30.21R
QUANTICO       MOCLDY    63  58  83 NE9       30.20S
FREDERICKSBRG* FOG       62  62 100 CALM      30.19R VSB 1/2
STAFFORD*      CLOUDY    57  57 100 CALM      30.23R FOG
WARRENTON      CLOUDY    57  56  96 NE6       30.20R
CULPEPER*      MOCLDY    55  54  94 CALM      30.21R
MANASSAS*      NOT AVBL
LEESBURG*      MOCLDY    54  52  94 N7        30.24R
WINCHESTER     MOCLDY    54  48  82 CALM      30.23R
FRONT ROYAL*   PTSUNNY   54  50  87 CALM      30.22R
LURAY*         CLOUDY    59  50  72 N9G16     30.21R
$$

VAZ048-049-060>072-079>083-191200-
CENTRAL AND SOUTH CENTRAL VIRGINIA...AND NORTH CENTRAL NORTH CAROLINA

CITY           SKY/WX    TMP DP  RH WIND       PRES   REMARKS
RICHMOND       CLOUDY    63  58  83 CALM      30.18R
CHESTERFIELD*  CLOUDY    63  54  72 CALM      30.20R
PETERSBURG*    CLOUDY    62  59  90 CALM      30.18S
HANOVER        CLOUDY    60  59  96 CALM      30.20R
TAPPAHANNOCK*  PTCLDY    57  55  94 CALM      30.19R FOG
CHARLOTTSVILLE MOCLDY    60  56  86 NE5       30.19R
ORANGE*        MOCLDY    57  55  94 N3        30.21R
LOUISA*        CLOUDY    61  57  88 CALM      30.18R FOG
FARMVILLE*     CLOUDY    63  63 100 CALM      30.16R
CREWE*         CLOUDY    62  57  83 CALM      30.18R
FORT PICKETT*  CLOUDY    62  59  90 NE6       30.18R
LUNENBURG*     CLOUDY    64  61  91 NE3       30.17R
SOUTH HILL*    MOCLDY    63  63 100 CALM      30.21R
LAWRENCEVILLE* CLOUDY    62  59  93 CALM      30.17R
ROANOKE RAPIDS CLOUDY    59  59 100 CALM      30.16R
RALEIGH        CLOUDY    65  58  78 E5        30.14R
$$

VAZ088>098-191200-
SOUTHEAST VIRGINIA

CITY           SKY/WX    TMP DP  RH WIND       PRES   REMARKS
NORFOLK        CLOUDY    68  60  75 CALM      30.16R
VIRGINIA BEACH MOCLDY    63  59  87 CALM      30.15R
NORFOLK NAVAL  MOCLDY    70  61  73 CALM      30.18R
WEST POINT*    CLOUDY    63  60  91 CALM      30.19R
NEWPORT NEWS   CLOUDY    68  60  75 N3        30.17R
LANGLEY AFB    CLOUDY    66  64  92 NW3       30.16R
FORT EUSTIS    CLOUDY    66  65  95 NE2       30.15R
WILLIAMSBURG*  CLOUDY    66  63  88 CALM      30.18R
HR EXEC AP*    SUNNY     54  52  94 CALM      30.18R
FRANKLIN*      CLOUDY    59  57  94 CALM      30.16R
WAKEFIELD      CLOUDY    62  58  86 CALM      30.17R
$$

VAZ020-022-025-037-045-191200-
WEST CENTRAL AND SOUTHWEST VIRGINIA

CITY           SKY/WX    TMP DP  RH WIND       PRES   REMARKS
STAUNTON*      MOCLDY    59  50  71 CALM      30.22R
HOT SPRINGS VA CLOUDY    51  36  54 E7        30.25R
LYNCHBURG      CLOUDY    62  61  96 NE7       30.18R
DANVILLE       MOCLDY    64  61  90 NE3       30.15R
SOUTH BOSTON*  NOT AVBL
MARTINSVILLE   RAIN      64  64 100 CALM      30.18R
ROANOKE        CLOUDY    65  59  81 NE3       30.18R
BLACKSBURG     CLOUDY    61  61 100 E8        30.20R FOG
DUBLIN*        CLOUDY    61  61 100 CALM      30.19R FOG
MARION*        CLOUDY    58  56  93 CALM      30.20S
HILLSVILLE*    CLOUDY    58  58  99 SE3       30.18S FOG
RICHLANDS*     SUNNY     63  57  82 SE3       30.16R
WISE*          CLEAR     54  54 100 CALM      30.16S FOG
ABINGDON*      MOCLDY    59  56  91 E5        30.14S
$$

MDZ021>025-VAZ099-100-191200-
SOUTHERN MARYLAND AND THE DELMARVA PENINSULA

CITY           SKY/WX    TMP DP  RH WIND       PRES   REMARKS
PATUXENT RIVER MOCLDY    59  58  96 W3        30.18R
BAY BRIDGE APT   N/A     59  52  77 NE9       30.21R
LEONARDTOWN    PTCLDY    55  54  94 CALM      30.20R
DOVER          CLEAR     57  54  89 N8        30.18R
GEORGETOWN     CLEAR     56  53  90 VRB5      30.20R FOG
EASTON         CLEAR     57  57 100 NE7       30.23R
CAMBRIDGE      CLEAR     57  54  88 CALM      30.19R
SALISBURY      CLEAR     57  53  86 CALM      30.18R
OCEAN CITY     CLEAR     58  55  90 N3        30.18R
WALLOPS ISLAND MOCLDY    60  57  89 CALM      30.18R
ACCOMACK*      CLOUDY    59  55  88 NE3       30.17R
$$

NCZ012>017-030>032-191200-
EASTERN NORTH CAROLINA

CITY           SKY/WX    TMP DP  RH WIND       PRES   REMARKS
ELIZABETH CITY PTCLDY    60  58  92 NW3       30.15R
AHOSKIE*       PTCLDY    58  56  94 CALM      30.16R
EDENTON*       CLEAR     60  58  94 NE5       30.15R
CURRITUCK*     CLOUDY    61  58  91 CALM      30.16R
KILL DEVIL HLS CLEAR     71  56  60 E9        30.12S
MANTEO         CLEAR     70  57  65 NE9       30.13S
CAPE HATTERAS  PTCLDY    69  62  78 NE9G18    30.10R
TARBORO*       CLOUDY    60  58  93 CALM      30.15R
GOLDSBORO      PTCLDY    63  62  97 CALM      30.11R
WASHINGTON     PTCLDY    59  57  92 NE5       30.14R
GREENVILLE     PTCLDY    61  59  94 CALM      30.15R
NEW BERN       PTCLDY    66  60  81 NE7       30.12R
WILMINGTON     PTCLDY    64  60  87 NE8       30.08R
$$

VAZ048-191200-
ELSEWHERE

CITY           SKY/WX    TMP DP  RH WIND       PRES   REMARKS
HARRISBURG PA  CLEAR     52  47  83 NW3       30.25R
BALTIMORE      PTCLDY    57  50  77 N7        30.22R
ANNAPOLIS      PTCLDY    61  53  75 NE5       30.21R
ANDREWS AFB    MOCLDY    54  53  95 NE5       30.20R
WILMINGTON DE  CLEAR     56  50  80 N10       30.23R
PHILADELPHIA   PTCLDY    58  49  72 NE14      30.23R
WILDWOOD NJ*   CLEAR     55  48  76 NE7       30.20R
ATLANTIC CITY  CLEAR     53  51  93 N6        30.20R
HENDERSON NC   MOCLDY    61  58  89 CALM      30.16R
GREENSBORO     CLOUDY    65  60  84 SE6       30.13R
ROCKY MOUNT    MOCLDY    61  58  90 CALM      30.14R
FAYETTEVILLE   CLOUDY    64  61  90 NE7       30.10R
CHARLOTTE      CLOUDY    67  64  90 N5        30.11R
$$

VAZ100-191200-
MARINE

STATION/POSITION TIME  TEMP    WIND        PRES    WAVE   SWELL
                       AIR SEA DIR/SP/G            HT/PER HT/PER
                 (UTC) (F)     (DEG/KT/KT) (MB)    (FT/S) (FT/S)
44066 TX TWR #4  1100   67 72   40/ 21/ 25 1021.3R   3/11   2/11
CAPE MAY NJ      1100   58 75   40/  6/ 10 1021.6R
LEWES DE         1100   63 72   50/ 13/ 15 1021.8R
15NM E FENWICK I 1100   68 72              1021.6R   2/10
OCEAN-CITY-INLET 1100   64 72  320/  6/  7 1021.4R
WACHAPREAGUE VA  1100   64 74   10/  3/  4 1021.4R
THOMAS POINT MD  1100   61 74   50/ 15/ 18 1023.6R
GOOSES REEF MD   1100   65      70/ 14/ 16 1022.6R
COVE POINT MD    1100   65      70/ 13/ 14 1021.8S
SOLOMONS ISLAND  1100      76                N/A
BISHOPS HEAD MD  1100   64 72   30/  7/ 11 1021.5R
PINEY POINT MD   1100           40/  6/  6   N/A
POTOMAC MD       1100   69      30/  6/  8 1020.9S
CAMBRIDGE MD     1100   60 74   40/  7/ 11 1022.0R
LEWISETTA VA     1100   66 73  290/  2/  3 1021.3S
RAPPAHANNOCK LGT 1100           60/  4/  5 1022.0R
STINGRAY PT      1100   70     350/  6/  8   N/A
YORK RVR RNG VA  1100   70      20/  5/  6 1020.9R
YORKTOWN VA      1100   68 76  330/  4/  5 1021.1R
JAMESTOWN VA     1100   65      50/  6/  6   N/A
DOMINION TERM VA 1100   69      10/  4/  5 1021.2R
KIPTOPEKE VA     1100      78   40/  3/  4   N/A
CHES BAY BRIDGE  1100   72 75   60/  6/  7 1020.6R
CAPE HENRY VA    1100   72      80/  8/ 10 1019.8R
CHESAPEAKE LGHT  1000   71      70/  7/  8 1021.4R
WILLOUBY STN VA  1100   70     360/  6/  7 1019.9R
S CRANEY ISL VA  1100           20/  3/  4 1020.9R
CAPE HENRY BUOY  1100      75                N/A     3/11   2/11
1ST LANDING BUOY 1100   72      80/  6/  8 1020.6R
CAPE CHARLES BUO 1100      74                N/A     3/11   2/11
OFFSHORE WE BUOY 1100      74                N/A     3/11   3/11
64NM E OF VA BCH 1100   73 77   60/ 14/ 17 1020.2R   3/ 8   3/ 8
DUCK PIER NC     1100   72 75   70/ 13/ 14 1019.7R
44100 DUCK FRF   1100      74                N/A     4/ 5   2/12
44056 DUCK FRF   1100                        N/A     3/10   2/11
OREGON INLET NC  1100   72 73   40/ 12/ 16 1019.8S
HATTERAS NC      1100   72 75   40/ 11/ 14 1019.6R
DIAMOND SHLS NC  1100   75      30/ 16/ 21 1018.3R   5/ 6   2/11
CAPE LOOKOUT NC  1000   74      20/ 10/ 15 1018.1R
$$


USA.gov is the U.S. government's official web portal to all federal, state and local government web resources and services.